Location: *
(34.6780°N, 135.8310°E)
Time: 09:44:46
(UTC+00:00)

ATLAS 2AS CENTAUR R/B - Pass Details

Date: 18 October 2019
Orbit: 926 x 1286 km, 63.7° (Epoch: 01 November)

Event Time Altitude Azimuth Distance (km) Brightness Sun altitude
Exits shadow 17:57:00 56° 101° (E) 1,487 3.5 -39.0°
Drops below altitude 10° 18:04:20 10° 39° (NE) 3,291 5.8 -37.6°
Sets 18:07:13 0° 36° (NE) 4,257 6.4 -37.0°
